Total_Precipitation_Accumulation
1.20 1.24 1.29 1.27 1.31 1.44 1.56 1.60 1.59 1.53 1.53 1.52 1.26 1.11 1.02 1.04 1.13 1.18 1.30 1.09 0.74 0.58 0.52 0.52 0.57 0.65 0.73 0.87 1.01 1.17 1.31 1.45 1.59 1.76 1.99 2.18 2.34 2.50
1.34 1.42 1.41 1.34 1.39 1.45 1.50 1.62 1.73 1.75 1.64 1.49 1.31 1.19 1.12 0.97 0.99 0.97 1.04 0.91 0.67 0.56 0.50 0.47 0.46 0.48 0.54 0.62 0.70 0.83 0.96 1.14 1.32 1.45 1.58 1.71 1.85 1.98
1.25 1.25 1.24 1.26 1.31 1.26 1.34 1.47 1.64 1.78 1.65 1.53 1.45 1.41 1.34 1.25 1.11 0.91 0.79 0.70 0.62 0.59 0.51 0.46 0.46 0.46 0.46 0.48 0.53 0.61 0.72 0.88 1.05 1.17 1.29 1.47 1.60 1.71
1.27 1.19 1.11 1.17 1.27 1.27 1.35 1.37 1.44 1.66 1.65 1.62 1.61 1.62 1.53 1.36 1.26 1.12 0.91 0.79 0.75 0.69 0.58 0.50 0.44 0.44 0.43 0.44 0.49 0.54 0.63 0.74 0.88 0.99 1.04 1.08 1.23 1.43
1.23 1.16 1.08 1.09 1.13 1.22 1.32 1.35 1.34 1.41 1.56 1.59 1.61 1.69 1.66 1.46 1.30 1.17 1.06 1.08 0.98 0.81 0.63 0.53 0.47 0.43 0.42 0.41 0.49 0.58 0.71 0.73 0.74 0.83 0.93 1.00 1.05 1.11
0.99 0.94 0.98 1.09 1.15 1.15 1.13 1.16 1.19 1.29 1.38 1.45 1.52 1.65 1.71 1.63 1.42 1.30 1.28 1.23 1.13 0.86 0.73 0.60 0.51 0.44 0.40 0.36 0.39 0.53 0.68 0.75 0.81 0.83 0.87 0.93 1.00 1.05
0.81 0.67 0.67 0.85 0.98 1.01 0.93 0.97 1.03 1.11 1.16 1.26 1.37 1.52 1.62 1.72 1.54 1.34 1.28 1.34 1.29 1.15 0.99 0.80 0.66 0.58 0.55 0.51 0.44 0.44 0.50 0.61 0.72 0.87 1.02 1.12 1.17 1.18
0.68 0.63 0.61 0.61 0.62 0.64 0.67 0.72 0.80 0.89 1.03 1.20 1.32 1.40 1.44 1.55 1.64 1.59 1.52 1.48 1.46 1.41 1.42 1.32 1.05 0.95 0.91 0.85 0.68 0.46 0.37 0.44 0.58 0.71 0.95 1.22 1.46 1.53
0.60 0.64 0.52 0.44 0.48 0.48 0.49 0.47 0.48 0.53 0.66 0.90 1.13 1.22 1.35 1.39 1.62 1.67 1.69 1.78 1.77 1.74 1.73 1.76 1.47 1.20 1.03 0.95 0.85 0.60 0.45 0.39 0.47 0.60 0.71 0.92 1.21 1.53
0.55 0.60 0.61 0.59 0.58 0.60 0.58 0.55 0.49 0.46 0.47 0.54 0.76 1.01 1.22 1.46 1.55 1.61 1.69 1.76 1.76 1.64 1.61 1.71 1.61 1.48 1.24 0.95 0.84 0.75 0.62 0.52 0.50 0.57 0.59 0.63 0.77 0.99
0.62 0.63 0.65 0.66 0.64 0.53 0.54 0.55 0.56 0.56 0.45 0.45 0.54 0.75 0.94 1.05 1.28 1.49 1.61 1.55 1.48 1.31 1.18 1.28 1.37 1.42 1.45 1.28 0.98 0.89 0.76 0.64 0.60 0.61 0.59 0.59 0.63 0.70
0.84 0.77 0.64 0.58 0.55 0.46 0.49 0.61 0.59 0.58 0.63 0.58 0.50 0.54 0.67 0.80 0.87 0.99 1.22 1.35 1.24 1.18 1.01 0.94 0.93 1.05 1.17 1.10 0.94 0.90 0.90 0.81 0.68 0.66 0.66 0.66 0.71 0.67
0.99 0.95 0.89 0.72 0.54 0.47 0.47 0.55 0.59 0.63 0.74 0.78 0.75 0.72 0.80 0.91 0.87 0.83 0.93 1.07 1.10 0.95 0.87 0.95 0.91 0.84 0.82 0.83 0.83 0.76 0.80 0.91 0.88 0.78 0.73 0.74 0.80 0.83
1.21 1.17 1.09 0.87 0.65 0.57 0.54 0.53 0.50 0.49 0.58 0.70 0.73 0.70 0.74 0.84 0.91 0.89 0.92 0.96 0.99 0.91 0.88 0.96 1.03 0.98 0.83 0.71 0.68 0.62 0.61 0.70 0.85 1.03 1.11 1.13 1.02 0.98
1.30 1.32 1.10 0.89 0.74 0.60 0.56 0.56 0.50 0.46 0.56 0.62 0.62 0.62 0.64 0.74 0.94 1.07 1.10 1.10 1.06 0.91 0.78 0.79 0.90 1.04 1.01 0.79 0.64 0.58 0.59 0.66 0.78 0.96 1.08 1.19 1.26 1.26
1.14 1.20 1.07 0.91 0.79 0.69 0.64 0.61 0.58 0.59 0.66 0.68 0.70 0.73 0.76 0.84 0.94 1.03 1.13 1.16 1.12 0.92 0.81 0.80 0.85 1.00 1.05 0.89 0.76 0.68 0.67 0.74 0.80 0.98 1.17 1.26 1.29 1.36
1.17 1.21 1.23 1.11 0.99 0.89 0.85 0.87 0.87 0.82 0.76 0.79 0.83 0.85 0.85 0.86 0.92 1.00 1.07 1.11 1.05 0.88 0.75 0.81 0.90 1.03 1.03 0.99 0.90 0.73 0.69 0.67 0.69 0.83 1.04 1.15 1.23 1.32
1.09 1.13 1.23 1.23 1.15 1.07 1.01 1.03 1.02 0.98 0.92 0.93 0.92 0.91 0.89 0.88 0.91 0.96 0.99 1.00 0.97 0.89 0.79 0.75 0.87 1.03 1.08 0.96 0.79 0.70 0.65 0.60 0.64 0.79 0.90 0.91 0.87 0.94
0.95 1.01 1.11 1.17 1.14 1.11 1.07 1.05 1.02 1.04 1.06 1.02 0.98 0.98 0.96 0.91 0.89 0.92 0.93 0.98 0.98 0.95 0.92 0.91 0.90 0.89 0.86 0.73 0.64 0.58 0.64 0.65 0.72 0.77 0.84 0.80 0.72 0.76
0.86 0.93 0.98 1.04 1.06 1.08 1.08 1.08 1.06 1.07 1.05 1.03 0.99 0.97 0.97 0.92 0.92 0.93 0.90 0.92 0.98 1.00 1.01 0.94 0.88 0.80 0.73 0.74 0.75 0.68 0.59 0.72 0.78 0.74 0.72 0.74 0.71 0.66
0.84 0.88 0.90 0.92 0.96 1.00 1.01 1.05 1.04 1.00 0.99 1.03 0.99 0.95 0.95 0.95 0.94 0.94 0.94 0.96 0.96 0.99 0.96 0.83 0.78 0.90 1.01 1.03 0.90 0.77 0.73 0.70 0.79 0.80 0.79 0.79 0.75 0.72
0.82 0.85 0.81 0.80 0.85 0.92 0.97 1.02 1.01 1.02 1.04 1.02 0.99 0.96 0.95 0.95 0.92 0.93 0.96 0.98 0.98 0.97 0.95 0.97 1.02 1.07 1.07 0.96 0.82 0.82 0.89 0.84 0.82 0.84 0.79 0.78 0.74 0.65
0.78 0.73 0.69 0.71 0.77 0.83 0.86 0.89 0.94 1.00 0.99 0.98 1.01 0.98 0.93 0.94 0.93 0.94 0.92 0.93 0.95 0.99 1.07 1.11 1.09 1.01 0.97 0.97 0.91 0.86 0.86 0.91 0.94 0.91 0.80 0.72 0.66 0.57